Overview Statistics Trail Chart Weather Telemetry Raw packets
 

This is the latest recevied weather packets stored in our database for station/object DH2PG-6. If no packets are shown the sender has not sent any weather packets the latest 10 day(s).

<< 69 70 71 72 73 74 75 >>
Time Temp. Humidity Pressure Rain* Wind** Luminosity Snow
1788060499 15° C 90% 1009.7 hPa 2.03 mm - - -
1788060198 15° C 90% 1009.8 hPa 2.54 mm - - -
1788059898 15° C 90% 1009.6 hPa 3.56 mm - - -
1788059598 15° C 90% 1009.7 hPa 5.08 mm - - -
1788059297 15° C 90% 1009.6 hPa 5.08 mm - - -
1788058997 15° C 90% 1009.7 hPa 5.08 mm - - -
1788058697 15° C 90% 1009.6 hPa 4.57 mm - - -
1788058403 15° C 90% 1009.5 hPa 4.57 mm - - -
1788058096 15° C 90% 1009.6 hPa 4.06 mm - - -
1788057796 15° C 90% 1009.5 hPa 3.56 mm - - -
1788057496 15° C 90% 1009.5 hPa 3.56 mm - - -
1788056895 15° C 90% 1009.3 hPa 3.05 mm - - -
1788056595 15.56° C 90% 1009.3 hPa 2.03 mm - - -
1788056294 15.56° C 90% 1009.3 hPa 1.02 mm - - -
1788055994 15.56° C 91% 1009 hPa 0 mm - - -
1788055694 15.56° C 90% 1008.9 hPa 0 mm - - -
1788055394 15.56° C 90% 1008.8 hPa 0 mm - - -
1788055093 15.56° C 90% 1008.8 hPa 0 mm - - -
1788054793 15.56° C 90% 1009 hPa 0 mm - - -
1788054493 15.56° C 90% 1009 hPa 0 mm - - -
1788054193 15.56° C 90% 1009.1 hPa 0 mm - - -
1788053892 15.56° C 90% 1009 hPa 0 mm - - -
1788053592 15.56° C 90% 1009.1 hPa 0 mm - - -
1788053343 16.11° C 90% 1009.2 hPa 0 mm - - -
1788053292 16.11° C 90% 1009.2 hPa 0 mm - - -

* Rain latest hour (hover to see other rain measurements)
** Current wind speed in m/s (hover to see current wind gust speed)